DateTimeUTC,F1_A11,F1_S11,BsB_S11,BsG_S11,BsR_S11,BbsB_S11,BbsG_S11,BbsR_S11,BaB_A11,BaG_A11,BaR_A11,Tu_S11,T_S11,Uu_S11,U_S11,P_S11,T1_A11
2021-04-04T04:00:00Z,00000200,21000000,,,,,,,-000.40,-000.13,-000.02,13.9,21.5,,00.0,0656.4,30.7
2021-04-04T04:01:00Z,00000200,21000000,,,,,,,0000.11,-000.19,-000.16,13.8,21.6,,00.0,0656.4,30.7
2021-04-04T04:02:00Z,00000200,21000000,,,,,,,-000.10,-000.01,-000.01,13.8,21.6,,00.0,0656.4,30.7
2021-04-04T04:03:00Z,00000200,61000000,,,,,,,0001.29,0001.17,0000.79,13.8,21.6,,00.0,0656.4,30.7
2021-04-04T04:04:00Z,00000200,41000000,0003.53,0002.48,0001.06,0000.63,0000.39,0000.28,0001.32,0001.34,0000.81,14.1,21.3,,00.0,0657.3,30.7
2021-04-04T04:05:00Z,00000200,01000000,0003.41,0002.24,0001.40,-000.05,0000.34,0000.16,0001.38,0001.26,0001.36,14.2,21.2,,00.0,0657.3,30.7
2021-04-04T04:06:00Z,00000200,01000000,0002.87,0002.39,0001.14,0000.41,0000.30,0000.11,0001.51,0001.09,0000.97,14.2,21.2,,00.0,0657.3,30.7
2021-04-04T04:07:00Z,00000200,01000000,0003.42,0002.09,0001.36,0000.35,0000.12,0000.20,0001.18,0001.61,0000.74,14.2,21.2,,00.0,0657.3,30.7
2021-04-04T04:08:00Z,00000200,01000000,0001.99,0002.32,0001.16,0000.10,0000.18,0000.17,0001.53,0001.32,0001.06,14.2,21.2,,00.0,0657.3,30.7
2021-04-04T04:09:00Z,00000200,01000000,0003.27,0002.24,0001.28,0000.14,0000.46,0000.56,0001.39,0001.18,0001.47,14.2,21.2,,00.0,0657.3,30.7
2021-04-04T04:10:00Z,00000200,01000000,0003.13,0002.49,0001.54,0000.26,0000.41,0000.37,0001.48,0001.31,0000.86,14.2,21.2,,00.0,0657.3,30.7
2021-04-04T04:11:00Z,00000200,01000000,0003.91,0002.33,0001.76,0000.65,0000.28,0000.50,0001.46,0001.37,0000.93,14.2,21.2,,00.0,0657.3,30.7
2021-04-04T04:12:00Z,00000200,01000000,0003.52,0002.37,0001.50,-000.17,0000.41,0000.18,0001.60,0001.43,0000.77,14.2,21.2,,00.0,0657.4,30.7
2021-04-04T04:13:00Z,00000200,01000000,0002.87,0002.37,0001.43,0000.30,0000.43,0000.41,0001.17,0000.83,0000.91,14.3,21.2,,00.0,0657.4,30.7
2021-04-04T04:14:00Z,00000200,01000000,0003.07,0002.58,0001.37,0000.55,0000.45,0000.25,0001.71,0001.53,0001.14,14.3,21.2,,00.0,0657.4,30.7
2021-04-04T04:15:00Z,00000200,01000000,0002.98,0002.49,0001.04,-000.02,0000.48,0000.61,0001.20,0001.33,0001.40,14.3,21.2,,00.0,0657.4,30.7
2021-04-04T04:16:00Z,00000200,01000000,0003.01,0002.71,0001.24,0000.33,0000.41,-000.20,0001.57,0001.39,0001.01,14.3,21.2,,00.0,0657.4,30.7
2021-04-04T04:17:00Z,00000200,01000000,0002.87,0002.25,0001.37,0000.03,0000.50,0000.49,0001.45,0001.11,0000.77,14.3,21.2,,00.0,0657.4,30.7
2021-04-04T04:18:00Z,00000200,01000000,0003.37,0002.63,0001.40,0000.43,0000.48,0000.41,0001.44,0001.71,0001.19,14.3,21.2,,00.0,0657.5,30.7
2021-04-04T04:19:00Z,00000200,01000000,0003.74,0002.10,0001.45,0000.54,0000.37,0000.23,0001.14,0001.17,0000.58,14.3,21.2,,00.0,0657.5,30.7
2021-04-04T04:20:00Z,00000200,01000000,0003.22,0002.35,0001.38,0000.82,0000.33,0000.33,0001.41,0001.32,0001.01,14.3,21.2,,00.0,0657.5,30.7
2021-04-04T04:21:00Z,00000200,01000000,0003.71,0002.47,0001.53,0000.27,0000.37,0000.09,0001.55,0001.51,0001.21,14.2,21.1,,00.0,0657.5,30.6
2021-04-04T04:22:00Z,00000200,01000000,0003.38,0002.06,0001.33,0000.03,0000.51,0000.05,0001.41,0000.99,0000.95,14.1,21.1,,00.0,0657.5,30.6
2021-04-04T04:23:00Z,00000200,01000000,0003.32,0002.49,0001.02,0000.38,0000.45,0000.18,0000.92,0000.90,0001.14,14.0,21.1,,00.0,0657.5,30.6
2021-04-04T04:24:00Z,00000200,01000000,0003.44,0002.08,0001.55,0000.63,0000.43,0000.36,0001.80,0001.56,0000.94,13.9,21.0,,00.0,0657.5,30.6
2021-04-04T04:25:00Z,00000200,01000000,0002.94,0002.39,0001.37,0000.24,0000.49,0000.40,0001.76,0001.43,0001.32,13.9,21.0,,00.0,0657.5,30.6
2021-04-04T04:26:00Z,00000200,01000000,0003.10,0002.34,0001.48,0000.50,0000.45,0000.21,0001.46,0001.42,0000.76,13.9,21.0,,00.0,0657.6,30.6
2021-04-04T04:27:00Z,00000200,01000000,0003.30,0002.10,0001.56,0000.66,0000.25,0000.42,0001.36,0001.18,0001.02,13.9,20.9,,00.0,0657.6,30.6
2021-04-04T04:28:00Z,00000200,01000000,0003.27,0002.07,0001.34,0000.67,0000.35,0000.16,0001.79,0001.59,0001.09,13.9,21.0,,00.0,0657.6,30.6
2021-04-04T04:29:00Z,00000200,01000000,0002.89,0002.34,0001.44,0000.04,0000.29,0000.26,0000.94,0001.21,0001.32,13.9,20.9,,00.0,0657.6,30.6
2021-04-04T04:30:00Z,00000200,01000000,0002.95,0002.41,0001.38,0000.84,0000.18,0000.37,0001.86,0001.46,0000.61,13.9,20.9,,00.0,0657.6,30.6
2021-04-04T04:31:00Z,00000200,01000000,0003.03,0002.38,0001.28,0000.49,0000.50,0000.35,0001.36,0001.15,0001.22,14.0,20.9,,00.0,0657.6,30.6
2021-04-04T04:32:00Z,00000200,01000000,0003.52,0002.28,0001.08,0000.36,0000.34,0000.28,0001.15,0001.48,0001.15,14.0,20.9,,00.0,0657.7,30.6
2021-04-04T04:33:00Z,00000200,01000000,0002.63,0002.27,0001.24,0000.46,0000.39,0000.12,0001.70,0001.12,0000.57,14.0,20.9,,00.0,0657.7,30.6
2021-04-04T04:34:00Z,00000200,01000000,0003.10,0002.12,0001.60,0000.42,0000.31,0000.28,0001.59,0001.53,0001.47,14.0,21.0,,00.0,0657.7,30.6
2021-04-04T04:35:00Z,00000200,01000000,0003.27,0002.38,0001.24,0000.24,0000.45,0000.39,0001.52,0001.06,0000.68,14.0,21.0,,00.0,0657.8,30.6
2021-04-04T04:36:00Z,00000200,01000000,0003.00,0002.62,0001.60,0000.27,0000.42,0000.54,0001.40,0001.55,0001.15,14.0,20.9,,00.0,0657.8,30.7
2021-04-04T04:37:00Z,00000200,01000000,0003.00,0002.41,0001.50,0000.33,0000.29,0000.29,0001.19,0001.32,0000.78,14.0,21.0,,00.0,0657.9,30.7
2021-04-04T04:38:00Z,00000200,01000000,0003.09,0002.47,0001.45,0000.14,0000.14,0000.51,0001.67,0001.40,0001.39,14.0,21.0,,00.0,0657.9,30.7
2021-04-04T04:39:00Z,00000200,01000000,0002.99,0002.16,0001.14,0000.71,0000.37,0000.20,0001.51,0001.19,0000.95,14.0,20.9,,00.0,0657.9,30.7
2021-04-04T04:40:00Z,00000200,01000000,0003.21,0002.56,0001.53,0000.25,0000.28,0000.48,0001.25,0001.58,0000.85,14.1,21.0,,00.0,0657.9,30.7
2021-04-04T04:41:00Z,00000200,01000000,0003.15,0002.39,0001.53,0000.25,0000.51,0000.36,0001.64,0001.09,0001.32,14.1,21.0,,00.0,0657.9,30.7
2021-04-04T04:42:00Z,00000200,01000000,0003.28,0002.53,0001.28,0000.98,0000.54,0000.56,0001.27,0001.15,0000.84,14.1,21.0,,00.0,0657.9,30.7
2021-04-04T04:43:00Z,00000200,01000000,0003.30,0002.30,0001.60,0001.11,0000.11,0000.28,0001.71,0001.45,0001.26,14.1,21.0,,00.0,0658.0,30.7
2021-04-04T04:44:00Z,00000200,01000000,0003.35,0002.61,0001.34,0000.82,0000.65,0000.35,0001.36,0001.58,0000.84,14.1,21.0,,00.0,0658.0,30.7
2021-04-04T04:45:00Z,00000200,01000000,0003.09,0002.38,0001.42,-000.05,0000.50,0000.32,0001.47,0001.00,0000.97,14.1,21.0,,00.0,0657.9,30.7
2021-04-04T04:46:00Z,00000200,01000000,0002.86,0002.28,0001.26,0000.71,0000.61,0000.30,0001.33,0001.35,0000.94,14.1,21.0,,00.0,0658.0,30.7
2021-04-04T04:47:00Z,00000200,01000000,0002.84,0002.36,0001.34,0000.18,0000.26,0000.14,0001.64,0001.31,0001.07,14.1,21.0,,00.0,0658.0,30.7
2021-04-04T04:48:00Z,00000200,01000000,0003.24,0002.42,0001.39,0000.47,0000.63,0000.39,0001.30,0001.46,0001.21,14.1,20.9,,00.0,0658.0,30.7
2021-04-04T04:49:00Z,00000200,01000000,0003.16,0002.37,0001.35,0000.20,0000.56,0000.38,0001.33,0001.00,0000.76,14.1,21.0,,00.0,0658.0,30.7
2021-04-04T04:50:00Z,00000200,01000000,0002.55,0002.36,0001.34,0000.17,0000.32,0000.34,0001.45,0001.68,0001.16,14.1,21.0,,00.0,0658.0,30.7
2021-04-04T04:51:00Z,00000200,01000000,0002.65,0002.70,0001.09,0000.56,0000.33,0000.24,0001.73,0001.40,0001.03,14.1,21.0,,00.0,0658.0,30.7
2021-04-04T04:52:00Z,00000200,01000000,0002.88,0002.50,0001.31,0000.48,0000.41,0000.07,0001.16,0001.35,0001.01,14.2,21.0,,00.0,0657.9,30.7
2021-04-04T04:53:00Z,00000200,01000000,0003.30,0002.50,0001.33,0000.21,0000.50,0000.49,0001.51,0001.27,0001.46,14.2,21.0,,00.0,0657.9,30.7
2021-04-04T04:54:00Z,00000200,01000000,0003.12,0002.34,0001.16,0000.39,0000.33,0000.50,0001.79,0001.53,0000.86,14.2,21.0,,00.0,0657.9,30.7
2021-04-04T04:55:00Z,00000200,01000000,0003.21,0002.43,0001.30,0000.68,0000.47,0000.34,0001.67,0001.39,0000.83,14.2,21.0,,00.0,0657.9,30.7
2021-04-04T04:56:00Z,00000200,01000000,0002.69,0002.28,0001.44,-000.15,0000.58,0000.33,0001.04,0001.47,0001.46,14.2,21.0,,00.0,0657.9,30.7
2021-04-04T04:57:00Z,00000200,41000000,,,,,,,0001.57,0001.01,0000.82,14.2,21.0,,00.0,0657.9,30.7
2021-04-04T04:58:00Z,00000200,61000000,,,,,,,-000.13,0000.14,-000.33,13.8,21.2,,00.0,0657.0,30.7
2021-04-04T04:59:00Z,00000200,21000000,,,,,,,-000.35,-000.34,-000.36,13.8,21.3,,00.0,0657.0,30.7
